Location: Glen Avon
(34.0117°N, 117.4848°W)
Time: 23:40:49
(UTC+00:00)

Meteor 1-21 Rocket - Pass Details

Date: 01 August 2021
Orbit: 832 x 908 km, 81.2° (Epoch: 24 September)

Event Time Altitude Azimuth Distance (km) Brightness Sun altitude
Rises 12:28:55 0° 351° (N) 3,475 7.7 -7.0°
Reaches altitude 10° 12:31:23 10° 352° (N) 2,521 6.9 -6.5°
Maximum altitude 12:37:07 90° 65° (ENE) 861 4.3 -5.5°
Drops below altitude 10° 12:42:42 10° 173° (S) 2,457 6.4 -4.4°
Sets 12:45:05 0° 174° (S) 3,380 7.1 -4.0°
